Current Version              Previous Version:    01  02  03  04  05  06  07  08  09  10  11  12  13  14  15  16  17  18  19  20  21  22  23  24  25  26  27  28  29  30  
   31  32  33  34  35  36  37  38  39  40  41  42  43  44  45  46  47  48  49  50  51  52  53  54  55  56  57  58  59  60  

[Printable]
316
ASUS44 KFWD 241410
RWRTX
NORTH TEXAS HOURLY WEATHER ROUNDUP
NATIONAL WEATHER SERVICE FORT WORTH TX
900 AM CDT FRI OCT 24 2014

NOTE: "FAIR" INDICATES FEW OR NO CLOUDS BELOW 12,000 FEET WITH NO
SIGNIFICANT WEATHER AND/OR OBSTRUCTIONS TO VISIBILITY.

TXZ118-119-241500-
DALLAS/FORT WORTH METROPLEX

CITY           SKY/WX    TMP DP  RH WIND       PRES   REMARKS
DFW AIRPORT    MOSUNNY   64  56  75 SE7       30.16R
DALLAS LOVE    PTSUNNY   64  55  72 S8        30.17R
FTW MEACHAM    MOSUNNY   66  56  70 SE7       30.14R
DAL-EXECUTIVE  SUNNY     63  55  75 S8        30.16R
FTW-ALLIANCE   MOSUNNY   66  56  70 S8        30.15R
FTW-NAS-JRB    MOSUNNY   70  55  59 S7        30.19R
ARLINGTON      SUNNY     63  55  75 SE7       30.16R
GRAND PRAIRIE  SUNNY     64  55  72 MISG      30.17R
MESQUITE       PTSUNNY   57  55  94 SE5       30.16S
LANCASTER      SUNNY     60  54  80 SE6       30.19R
$$

TXZ091>094-102>105-117-120-121-131>134-241500-
NORTH CENTRAL TEXAS

CITY           SKY/WX    TMP DP  RH WIND       PRES   REMARKS
SHRMAN/DENISON SUNNY     62  58  86 S7        30.17R
GAINESVILLE    MOSUNNY   60  57  89 SE7       30.16R
BOWIE          SUNNY     60  57  89 SE5       30.14R
BRIDGEPORT     SUNNY     60  59  96 CALM      30.16R
DECATUR        MOSUNNY   65  55  71 S7        30.15R
DENTON         SUNNY     61  56  83 SE8       30.15R
MCKINNEY       MOSUNNY   62  57  83 S8        30.16R
GREENVILLE     MOSUNNY   61  55  82 S3        30.18R
ROCKWALL       MOSUNNY   61  54  77 S9G16     30.16R
TERRELL        PTSUNNY   60  55  83 S6        30.18R
WAXAHACHIE     SUNNY     61  56  83 SE5       30.18R
CLEBURNE       SUNNY     63  57  82 S8        30.17R
GRANBURY       SUNNY     65  58  78 SE3       30.17R
$$

TXZ083>090-098>101-113>116-127>130-139>142-154-155-241500-
WESTERN NORTH TEXAS

CITY           SKY/WX    TMP DP  RH WIND       PRES   REMARKS
WICHITA FALLS  SUNNY     62  58  86 S8        30.11R
WF-KICKAPOO    SUNNY     62  57  83 SW7       30.12R
VERNON         SUNNY     64  61  88 SW3       30.11R
ABILENE        SUNNY     63  60  90 SW7       30.16R FOG
ABILENE-DYESS  SUNNY     64  61  88 CALM      30.15R
BRECKENRIDGE   SUNNY     65  61  86 S6        30.15R FOG
GRAHAM         SUNNY     66  61  84 S5        30.13R
MINERAL WELLS  SUNNY     62  57  83 SE5       30.14R
STEPHENVILLE   SUNNY     61  56  85 CALM      30.19R
COMANCHE       SUNNY     63  61  94 CALM      30.17R
BROWNWOOD      SUNNY     63  59  88 CALM      30.18R FOG
COLEMAN        SUNNY     62  61  96 S7        30.17R
BRADY          SUNNY     63  61  94 SW3       30.17R
$$

TXZ143>147-156>162-174-175-241500-
CENTRAL TEXAS

CITY           SKY/WX    TMP DP  RH WIND       PRES   REMARKS
WACO           MOSUNNY   65  56  72 SE7       30.17R
WACO-TSTC      MOSUNNY   63  57  82 CALM      30.18R
WACO-MCGREGOR  SUNNY     61  52  72 S5        30.19R
HILLSBORO      SUNNY     64  52  65 SE9       30.17R
CORSICANA      MOSUNNY   60  52  74 S8        30.19R
MEXIA          MOSUNNY   58  53  82 CALM      30.17S
HEARNE         PTSUNNY   60  56  87 E3        30.19R FOG
CAMERON        PTSUNNY   60  57  88 CALM      30.18R
TEMPLE         SUNNY     61  54  77 SE6       30.17R
KILLEEN        SUNNY     64  56  75 S8        30.17R
KILLEEN-SKYLRK SUNNY     64  52  63 SE5       30.15R
FORT HOOD      SUNNY     66  56  70 SE3       30.17R
GATESVILLE     SUNNY     63  55  77 CALM      30.19R
HAMILTON       SUNNY     63  58  82 SE5       30.17R
LAMPASAS       SUNNY     60  58  90 CALM      30.16R
$$

TXZ095>097-106>112-122>126-135>138-148>153-164>167-241500-
EAST TEXAS

CITY           SKY/WX    TMP DP  RH WIND       PRES   REMARKS
PARIS          SUNNY     55  46  71 CALM      30.18R
SULPHUR SPRNGS CLOUDY    60  54  78 S3        30.19R
MOUNT PLEASANT PTSUNNY   55  53  92 CALM      30.20R
MINEOLA        PTSUNNY   57  55  94 CALM      30.18R
TYLER          PTSUNNY   59  52  77 S6        30.18R
LONGVIEW       SUNNY     57  53  86 CALM      30.17R
MARSHALL       SUNNY     56  53  87 CALM      30.20R
ATHENS         CLOUDY    55  54  94 CALM      30.17S
PALESTINE      CLOUDY    59  54  84 CALM      30.19R
JACKSONVILLE   SUNNY     59  50  71 CALM      30.20R
HENDERSON      SUNNY     55  53  95 CALM      30.19S
NACOGDOCHES    SUNNY     54  50  87 CALM      30.19R
LUFKIN         SUNNY     61  54  77 CALM      30.18R
$$

SUPPLEMENTAL OBSERVATIONS (CENTRAL)

CITY           SKY/WX    TMP DP  RH WIND       PRES   REMARKS
CADDO GRASSLND   N/A     57  52  82 S5          N/A
PAT MAYSE LAKE   N/A     55  50  82 N1          N/A
GREENVILLE       N/A     61  54  77 S5          N/A
CEDAR HILL       N/A     64  54  68 SE8         N/A
PALESTINE        N/A     61  55  82 SE2         N/A
MCGREGOR         N/A     64  55  72 S6          N/A
TEMPLE           N/A     63  55  77 SE3         N/A
$$

SUPPLEMENTAL OBSERVATIONS (WEST)

CITY           SKY/WX    TMP DP  RH WIND       PRES   REMARKS
MILLERS CREEK    N/A     63  57  82 SW7         N/A
POSSUM KINGDOM   N/A     66  59  77 S7          N/A
LBJ GRASSLAND    N/A     64  55  72 SE6         N/A
GRANBURY         N/A     64  55  72 SE3         N/A
HAMBY            N/A     64  59  82 S5          N/A
IVIE RESERVOIR   N/A     63  59  88 CALM        N/A
COLORADO BEND    N/A     66  57  72 S5          N/A
$$

SUPPLEMENTAL OBSERVATIONS (EAST)

CITY           SKY/WX    TMP DP  RH WIND       PRES   REMARKS
CLARKSVILLE      N/A     61  52  72 SE2         N/A
TEXARKANA        N/A     57  52  82 CALM        N/A
LINDEN           N/A     59  52  77 CALM        N/A
GILMER           N/A     61  54  77 S3          N/A
HENDERSON        N/A     57  52  82 S1          N/A
LUFKIN           N/A     57  52  82 MISG        N/A
N SABINE NF      N/A     48  46  93 MISG        N/A
$$

SUPPLEMENTAL OBSERVATIONS ARE A COLLECTION OF AUTOMATED INSTRUMENTS
THAT ARE MAINTAINED BY A VARIETY OF FEDERAL AND STATE AGENCIES.
CERTAIN ELEMENTS...SUCH AS HUMIDITY VALUES AND SUSTAINED WIND
SPEEDS...MAY BE APPROXIMATED.